Regional Weather Roundup
Issued by NWS Wakefield, VA

Home | Current Version | Previous Version | Graphics & Text | Print | Product List | Glossary On
Versions: 1 2 3 4 5 6 7 8 9 10 11 12 13 14 15 16 17 18 19 20 21 22 23 24 25 26 27 28 29 30 31 32 33 34 35 36 37 38 39 40 41 42 43 44 45 46 47 48 49 50
994
ASUS41 KAKQ 270715
RWRAKQ

REGIONAL WEATHER ROUNDUP
NATIONAL WEATHER SERVICE WAKEFIELD VA
300 AM EDT THU APR 27 2017

Note: "fair" indicates few or no clouds below 12,000 feet with no
significant weather and/or obstructions to visibility. * = Denotes
station may not report precipitation (e.g., rain,snow,etc.),
thunder or fog.

VAZ042-051-052>054-056-270800-
NORTHERN VIRGINIA

CITY           SKY/WX    TMP DP  RH WIND       PRES   REMARKS
WASH NATIONAL  PTCLDY    60  58  92 CALM      29.83F
DULLES         PTCLDY    57  55  93 CALM      29.81F
FORT BELVOIR   CLEAR     55  54  94 CALM      29.81F FOG
QUANTICO       CLEAR     61  60  97 CALM      29.82F
FREDERICKSBRG* CLEAR     58  58 100 CALM      29.80F
STAFFORD*        N/A     55  55 100 CALM      29.85F FOG
WARRENTON      CLOUDY    58  55  91 CALM      29.81F
CULPEPER*      FOG       55  55 100 CALM      29.82F VSB 1/2
MANASSAS*        N/A     57  56  96 CALM      29.82F
LEESBURG*      CLOUDY    59  59 100 SE3       29.83S
WINCHESTER     CLEAR     52  52 100 CALM      29.79S FOG
FRONT ROYAL*   SUNNY     55  55 100 CALM      29.78S
LURAY*         SUNNY     55  55 100 CALM      29.79S
$$

VAZ048-049-060>072-079>083-270800-
CENTRAL AND SOUTH CENTRAL VIRGINIA

CITY           SKY/WX    TMP DP  RH WIND       PRES   REMARKS
RICHMOND       CLEAR     60  60 100 SE5       29.81F
CHESTERFIELD*  FAIR     N/A N/A N/A CALM      29.82F
PETERSBURG*      N/A     57  56  97 CALM      29.82F FOG
HANOVER        CLEAR     58  55  90 CALM      29.82F FOG
TAPPAHANNOCK*  CLEAR     58  58 100 CALM      29.83F
QUINTON*       FAIR      59  59 100 MISG      29.81F
CHARLOTTSVILLE CLEAR     60  58  92 N3        29.80F
GORDONSVILLE*  MOSUNNY   56  56 100 CALM      29.80S FOG
ORANGE*        FOG       54  54 100 CALM      29.80F VSB 1/2
LOUISA*        FOG       59  57  94 CALM      29.79F VSB 1/2
BUMPASS*       FAIR      59  59 100 CALM      29.80F
FARMVILLE*     CLEAR     62  62 100 CALM      29.79F
CREWE*         FAIR      60  60 100 CALM      29.81F
FORT PICKETT*  FAIR     N/A N/A N/A CALM      29.81F
CHASE CITY*    FAIR      61  60  94 CALM      29.82S
CLARKSVILLE*   FAIR      63  63 100 S5        29.81F
SOUTH HILL*    CLEAR     62  62 100 S5        29.87F
LAWRENCEVILLE* FAIR      63  61  95 CALM      29.82F
EMPORIA*         N/A     59  59 100 CALM      29.84S
$$

VAZ088>098-270800-
SOUTHEAST VIRGINIA

CITY           SKY/WX    TMP DP  RH WIND       PRES   REMARKS
NORFOLK        CLEAR     63  61  93 S6        29.83S
VIRGINIA BEACH CLEAR     63  61  93 S5        29.83S
NORFOLK NAVAL  PTCLDY    66  63  90 S7        29.84F
WEST POINT*    CLEAR     59  58  97 CALM      29.83F
SALUDA*        FAIR      58  58 100 CALM      29.82F
NEWPORT NEWS   CLEAR     60  59  96 CALM      29.83F
LANGLEY AFB    CLEAR     63  62  97 S7        29.82F
FORT EUSTIS    CLEAR     63  61  94 S5        29.80F
WILLIAMSBURG*  CLEAR     64  64 100 CALM      29.84S
HR EXEC AP*    FAIR      63  59  88 SW3       29.82S
FRANKLIN*      CLEAR     63  62  96 S5        29.84S
US460-WAKEFLD  CLEAR     60  60 100 CALM      29.83S FOG
$$

VAZ020-022-025-037-045-270800-
WEST CENTRAL AND SOUTHWEST VIRGINIA

CITY           SKY/WX    TMP DP  RH WIND       PRES   REMARKS
STAUNTON*      CLEAR     56  55  96 CALM      29.82F
WAYNESBORO*    SUNNY     59  59 100 CALM      29.82S
HOT SPRINGS VA CLEAR     59  55  88 S8        29.89F
LYNCHBURG      CLEAR     58  58 100 CALM      29.82F FOG
DANVILLE       CLEAR     57  57 100 CALM      29.81S
SOUTH BOSTON*  FAIR      60  59  95 CALM      29.81S
MARTINSVILLE   CLEAR     53  53  97 CALM      29.83F
ROANOKE        CLEAR     61  59  93 CALM      29.82F
BLACKSBURG     CLEAR     58  55  88 E3        29.86F
DUBLIN*        CLEAR     62  54  74 S3        29.84S
MARION*        MOCLDY    64  56  73 CALM      29.86R
HILLSVILLE*    CLEAR     62  58  86 S7        29.85R
RICHLANDS*     FAIR      65  53  64 S8        29.82R
WISE*          CLEAR     64  50  59 S9        29.81F
ABINGDON*      CLEAR     66  53  63 W3        29.82R
$$

MDZ021>025-VAZ099-100-270800-
SOUTHERN MARYLAND AND THE DELMARVA PENINSULA

CITY           SKY/WX    TMP DP  RH WIND       PRES   REMARKS
PATUXENT RIVER CLEAR     59  59 100 SE6       29.83F
BAY BRIDGE APT CLEAR     57  57 100 E3        29.84S FOG
LEONARDTOWN    CLEAR     57  55  94 E3        29.84F
DOVER          CLEAR     57  57 100 CALM      29.84S FOG
GEORGETOWN     FOG       57  56  96 CALM      29.86S VSB 1/4
EASTON         CLEAR     57  56  94 S3        29.88S FOG
CAMBRIDGE      FOG       54  54 100 SE5       29.84F VSB 1/2
SALISBURY      CLOUDY    53  53 100 CALM      29.85S
OCEAN CITY     PTCLDY    51  50  96 CALM      29.86S FOG
WALLOPS ISLAND CLEAR     56  56 100 S3        29.85F
ACCOMACK*      CLEAR     57  52  82 SE5       29.84F
$$

NCZ012>017-030>032-270800-
NORTH CENTRAL AND EASTERN NORTH CAROLINA

CITY           SKY/WX    TMP DP  RH WIND       PRES   REMARKS
ROANOKE RAPIDS CLOUDY    63  63 100 S5        29.84S
RALEIGH        CLEAR     66  62  87 SW10      29.85S
ELIZABETH CITY CLEAR     67  66  97 S8        29.85S
AHOSKIE*         N/A     63  63  98 S3        29.85R
EDENTON*       CLEAR     67  65  90 CALM      29.86S
CURRITUCK*     CLEAR     66  66 100 CALM      29.86S
KILL DEVIL HLS MOCLDY    68  68 100 CALM      29.85F
MANTEO         CLOUDY    68  65  92 SW10      29.87S
CAPE HATTERAS  CLEAR     71  67  87 SW8       29.89S FOG
TARBORO*       NOT AVBL
GOLDSBORO      CLEAR     67  62  83 SW8       29.85R
WASHINGTON     CLEAR     65  62  88 S3        29.87S
GREENVILLE     CLEAR     66  63  88 SW6       29.88S
NEW BERN       CLEAR     65  64  97 S6        29.89R
WILMINGTON     CLEAR     67  63  87 SW6       29.89S
$$

VAZ048-270800-
ELSEWHERE

CITY           SKY/WX    TMP DP  RH WIND       PRES   REMARKS
HARRISBURG PA  CLEAR     52  52 100 E3        29.82F FOG
BALTIMORE      MOCLDY    54  54 100 CALM      29.83F FOG
ANNAPOLIS      PTCLDY    58  57  97 SE3       29.83S FOG
ANDREWS AFB    CLEAR     57  56  97 SE6       29.81F
PHILADELPHIA   CLOUDY    61  57  87 CALM      29.85S
HENDERSON NC   CLEAR     61  60  95 S7        29.83F
GREENSBORO     CLEAR     64  61  90 S8        29.82F
ROCKY MOUNT    CLEAR     66  63  90 S7        29.85S
$$

VAZ100-270800-
MARINE

STATION/POSITION TIME  TEMP    WIND        PRES    WAVE   SWELL
                       AIR SEA DIR/SP/G            HT/PER HT/PER
                 (UTC) (F)     (DEG/KT/KT) (MB)    (FT/S) (FT/S)
CAPE MAY NJ      0648   56 55  180/  2/  3 1010.6F
LEWES DE         0648          210/  5/  9   N/A
15NM E FENWICK I 0650   52 51  180/  4/  4 1011.9S   5/10   5/10
OCEAN-CITY-INLET 0648          170/  3/  4   N/A
WACHAPREAGUE VA  0642   57 63     CALM     1010.1F
THOMAS POINT MD  0700   58 56  140/  5/  5   N/A
GOOSES REEF MD   0700   59 53  180/  6/  8 1010.7    0
COVE POINT MD    0642   59     170/  9/ 10 1010.8F
SOLOMONS ISLAND  0648          120/  8/  9   N/A
BISHOPS HEAD MD  0636   61 61  130/  7/  9 1010.8F
PINEY POINT MD   0648          140/ 10/ 10   N/A
POTOMAC MD       0700   60 60  140/  8/ 10 1009.0    1/ 2
CAMBRIDGE MD     0636   57 62                N/A
LEWISETTA VA     0642   61 62  130/  4/  5 1009.6F
RAPPAHANNOCK LGT 0648          130/  8/  8 1010.7F
STINGRAY PT      0700   62 63  180/  6/  6 1009.9    0
YORK RVR RNG VA  0642   63     190/  6/  6 1009.3F
YORKTOWN VA      0642   63 63  190/  4/  5 1009.6F
JAMESTOWN VA     0700   64 67  160/  6/  6   N/A
DOMINION TERM VA 0642   65     180/  5/  5 1010.1F
KIPTOPEKE VA     0648          160/  5/  9   N/A
CHES BAY BRIDGE  0642   64 62  200/  6/  7 1010.0F
CAPE HENRY VA    0642   64     190/  9/ 11   N/A
WILLOUBY STN VA  0642   67     190/ 10/ 11 1010.9F
S CRANEY ISL VA  0642   65     190/  5/  6 1009.9F
CAPE HENRY BUOY  0642      56                N/A     3/10   2/11
1ST LANDING BUOY 0700   64 61              1010.4    1/ 6
CAPE CHARLES BUO 0651      56                N/A     4/10   2/11
64NM E OF VA BCH 0650   59 56  190/  8/ 10 1011.7F   5/10   5/10
DUCK PIER NC     0642   68 59  190/  7/ 11 1010.4F
44100 DUCK FRF   0635      58                N/A     4/13   2/13
44056 DUCK FRF   0630      61                N/A     3/ 9   2/11
OREGON INLET NC  0642   69 68  190/  9/ 10 1011.3F
HATTERAS NC      0642   71 69  220/  9/ 12 1011.8R
DIAMOND SHLS NC  0650   76 76  230/ 19/ 23 1011.8F   7/ 9   5/ 9
CAPE LOOKOUT NC  0700   70     220/  6/  8 1011.9S
$$




USA.gov is the U.S. government's official web portal to all federal, state and local government web resources and services.